GW5440 Weather Reports


Display with metric or nautical units.
time (UTC)temp
F
wind
direction
speed
MPH
gust
MPH
rain 1hr
in
rain 24hr
in
rain mn
in
humidity
%
barometer
mb
20260505022602 67 202 0.0 3.0 0.00 0.00 0.00 35 1004.3
20260505022401 68 202 1.0 4.0 0.00 0.00 0.00 36 1004.2
20260505022202 68 202 0.0 4.0 0.00 0.00 0.00 35 1004.2
20260505022002 68 202 1.0 4.0 0.00 0.00 0.00 35 1004.2
20260505021602 68 190 1.0 4.0 0.00 0.00 0.00 35 1004.2
20260505021402 69 186 1.0 6.0 0.00 0.00 0.00 35 1004.2
20260505021201 69 186 1.0 6.0 0.00 0.00 0.00 35 1004.3
20260505021001 69 186 2.0 6.0 0.00 0.00 0.00 34 1004.2
20260505020802 69 186 3.0 6.0 0.00 0.00 0.00 33 1004.2
20260505020602 69 178 3.0 5.0 0.00 0.00 0.00 33 1004.2
20260505020202 70 183 1.0 6.0 0.00 0.00 0.00 32 1004.2
20260505020004 70 183 2.0 6.0 0.00 0.00 0.00 31 1004.2
20260505015804 70 185 2.0 6.0 0.00 0.00 0.00 31 1004.1
20260505015602 70 185 2.0 6.0 0.00 0.00 0.00 31 1004.1
20260505015403 70 192 2.0 5.0 0.00 0.00 0.00 31 1004.2
20260505014803 71 188 2.0 5.0 0.00 0.00 0.00 31 1004.1
20260505014602 71 192 1.0 6.0 0.00 0.00 0.00 31 1004.1
20260505014402 71 192 1.0 6.0 0.00 0.00 0.00 31 1004.1
20260505014202 71 192 2.0 6.0 0.00 0.00 0.00 30 1004.1
20260505014003 71 192 3.0 6.0 0.00 0.00 0.00 30 1004.1
20260505013802 71 166 3.0 6.0 0.00 0.00 0.00 30 1004.2
20260505013604 71 195 3.0 6.0 0.00 0.00 0.00 29 1004.2
20260505013205 71 195 3.0 9.0 0.00 0.00 0.00 29 1004.2
20260505012803 71 188 3.0 9.0 0.00 0.00 0.00 28 1004.1
20260505012604 71 182 4.0 9.0 0.00 0.00 0.00 28 1004.2
20260505012403 72 196 6.0 9.0 0.00 0.00 0.00 28 1004.1
20260505012202 72 203 3.0 8.0 0.00 0.00 0.00 29 1004.1
20260505011803 72 190 3.0 7.0 0.00 0.00 0.00 29 1004.2
20260505011602 72 178 5.0 7.0 0.00 0.00 0.00 28 1004.2
20260505011403 72 206 3.0 9.0 0.00 0.00 0.00 28 1004.3
20260505011202 72 178 3.0 9.0 0.00 0.00 0.00 29 1004.2
20260505011004 72 189 1.0 9.0 0.00 0.00 0.00 29 1004.3
20260505010802 72 189 3.0 9.0 0.00 0.00 0.00 28 1004.3
20260505010603 72 156 3.0 9.0 0.00 0.00 0.00 28 1004.3
20260505010203 72 180 2.0 9.0 0.00 0.00 0.00 29 1004.4
20260505010005 72 186 4.0 9.0 0.00 0.00 0.00 28 1004.4
20260505005802 73 175 3.0 9.0 0.00 0.00 0.00 28 1004.4
20260505005401 73 166 4.0 9.0 0.00 0.00 0.00 28 1004.4
20260505005002 73 165 3.0 10.0 0.00 0.00 0.00 29 1004.5
20260505004802 73 194 2.0 10.0 0.00 0.00 0.00 29 1004.4
20260505004601 73 194 1.0 10.0 0.00 0.00 0.00 28 1004.5
20260505004002 73 186 4.0 11.0 0.00 0.00 0.00 28 1004.5
20260505003801 73 180 4.0 11.0 0.00 0.00 0.00 28 1004.5
20260505003402 72 196 6.0 11.0 0.00 0.00 0.00 28 1004.6
20260505003002 72 196 4.0 8.0 0.00 0.00 0.00 28 1004.6
20260505002801 72 198 5.0 8.0 0.00 0.00 0.00 28 1004.7
20260505002601 73 178 6.0 12.0 0.00 0.00 0.00 27 1004.7
20260505002401 73 184 5.0 12.0 0.00 0.00 0.00 28 1004.7
20260505002201 73 169 5.0 12.0 0.00 0.00 0.00 28 1004.7
20260505002002 73 183 5.0 12.0 0.00 0.00 0.00 29 1004.7
20260505001602 73 202 3.0 9.0 0.00 0.00 0.00 29 1004.6
20260505001401 73 154 2.0 8.0 0.00 0.00 0.00 29 1004.7
20260505001002 72 146 2.0 12.0 0.00 0.00 0.00 30 1004.7
20260505000802 72 173 2.0 12.0 0.00 0.00 0.00 30 1004.8
20260505000601 72 212 6.0 12.0 0.00 0.00 0.00 29 1004.8
20260505000401 72 191 8.0 12.0 0.00 0.00 0.00 29 1004.8
20260505000204 73 182 5.0 12.0 0.00 0.00 0.00 29 1004.8
20260505000004 72 187 6.0 12.0 0.00 0.00 0.00 29 1004.8
20260504235803 72 134 4.0 12.0 0.00 0.00 0.00 30 1004.8
20260504235602 72 194 7.0 12.0 0.00 0.00 0.00 29 1004.8
20260504235402 72 200 5.0 9.0 0.00 0.00 0.00 29 1004.8
20260504235203 73 215 6.0 10.0 0.00 0.00 0.00 28 1004.9
20260504234802 73 198 5.0 11.0 0.00 0.00 0.00 30 1004.9
20260504234602 73 200 6.0 11.0 0.00 0.00 0.00 30 1005.0
20260504234203 73 188 7.0 12.0 0.00 0.00 0.00 30 1005.0
20260504234003 73 178 7.0 10.0 0.00 0.00 0.00 30 1004.9
20260504233803 74 194 6.0 10.0 0.00 0.00 0.00 30 1004.9
20260504233601 74 186 7.0 10.0 0.00 0.00 0.00 28 1005.0
20260504233401 74 207 7.0 15.0 0.00 0.00 0.00 27 1004.9
20260504233201 74 184 4.0 15.0 0.00 0.00 0.00 26 1004.8
20260504233001 74 217 5.0 15.0 0.00 0.00 0.00 27 1004.9
20260504232801 74 196 4.0 15.0 0.00 0.00 0.00 27 1004.8
20260504232602 75 185 6.0 15.0 0.00 0.00 0.00 26 1004.8
20260504232402 75 220 4.0 10.0 0.00 0.00 0.00 26 1004.8
20260504232201 75 207 3.0 7.0 0.00 0.00 0.00 26 1004.8
20260504231802 74 200 3.0 9.0 0.00 0.00 0.00 26 1004.8
20260504231601 74 163 2.0 11.0 0.00 0.00 0.00 27 1004.9
20260504231201 74 213 4.0 11.0 0.00 0.00 0.00 27 1004.9
20260504231001 74 183 5.0 11.0 0.00 0.00 0.00 26 1004.8
20260504230801 74 200 5.0 12.0 0.00 0.00 0.00 26 1004.8
20260504230602 74 175 3.0 12.0 0.00 0.00 0.00 25 1004.9
20260504230402 74 221 5.0 12.0 0.00 0.00 0.00 25 1004.9
20260504230202 74 155 5.0 12.0 0.00 0.00 0.00 25 1004.9
20260504230002 74 207 4.0 12.0 0.00 0.00 0.00 26 1004.9
20260504225802 74 138 4.0 10.0 0.00 0.00 0.00 26 1004.9
20260504225601 74 205 5.0 10.0 0.00 0.00 0.00 25 1004.9
20260504225401 75 223 3.0 11.0 0.00 0.00 0.00 28 1004.8
20260504225202 74 176 2.0 11.0 0.00 0.00 0.00 28 1004.9
20260504225003 74 153 2.0 11.0 0.00 0.00 0.00 30 1004.8
20260504224802 73 209 5.0 11.0 0.00 0.00 0.00 30 1004.9
20260504224602 72 217 5.0 11.0 0.00 0.00 0.00 29 1004.8
20260504224402 72 223 6.0 13.0 0.00 0.00 0.00 28 1004.9
20260504224201 73 171 7.0 13.0 0.00 0.00 0.00 28 1004.9
20260504223802 74 250 6.0 13.0 0.00 0.00 0.00 28 1004.9
20260504223601 74 299 5.0 14.0 0.00 0.00 0.00 28 1004.9
20260504223401 74 178 6.0 14.0 0.00 0.00 0.00 27 1004.9
20260504223202 75 162 9.0 14.0 0.00 0.00 0.00 27 1004.8
20260504223001 75 223 5.0 16.0 0.00 0.00 0.00 28 1004.8
20260504222802 75 199 2.0 16.0 0.00 0.00 0.00 29 1004.9
20260504222602 74 192 3.0 16.0 0.00 0.00 0.00 29 1004.9
20260504222403 74 280 7.0 16.0 0.00 0.00 0.00 29 1004.8
20260504222202 74 223 6.0 16.0 0.00 0.00 0.00 28 1004.9
20260504221801 75 223 2.0 8.0 0.00 0.00 0.00 28 1005.0
20260504221602 75 248 3.0 8.0 0.00 0.00 0.00 28 1004.9
20260504221402 76 268 4.0 8.0 0.00 0.00 0.00 27 1004.9
20260504221202 77 215 3.0 10.0 0.00 0.00 0.00 23 1004.9
20260504221002 77 284 2.0 10.0 0.00 0.00 0.00 23 1004.8
20260504220801 76 217 4.0 10.0 0.00 0.00 0.00 21 1004.8
20260504220401 77 201 6.0 10.0 0.00 0.00 0.00 21 1004.9
20260504220202 77 283 3.0 7.0 0.00 0.00 0.00 21 1004.9
20260504220005 78 251 3.0 7.0 0.00 0.00 0.00 21 1005.0
20260504215803 78 288 2.0 7.0 0.00 0.00 0.00 23 1004.9
20260504215603 78 237 3.0 7.0 0.00 0.00 0.00 23 1005.0
20260504215403 77 257 3.0 7.0 0.00 0.00 0.00 23 1005.0
20260504215202 77 233 3.0 7.0 0.00 0.00 0.00 23 1005.0
20260504215003 76 302 2.0 5.0 0.00 0.00 0.00 25 1005.0
20260504214803 75 336 2.0 4.0 0.00 0.00 0.00 22 1005.0
20260504214602 75 304 2.0 5.0 0.00 0.00 0.00 21 1005.1
20260504214403 76 306 1.0 7.0 0.00 0.00 0.00 20 1005.1
20260504214203 76 307 2.0 7.0 0.00 0.00 0.00 21 1005.2
20260504213803 77 233 3.0 7.0 0.00 0.00 0.00 22 1005.3
20260504213602 76 204 4.0 7.0 0.00 0.00 0.00 21 1005.3
20260504213403 77 290 3.0 8.0 0.00 0.00 0.00 23 1005.3
20260504213202 76 247 1.0 9.0 0.00 0.00 0.00 24 1005.3
20260504213002 75 355 2.0 10.0 0.00 0.00 0.00 22 1005.4
20260504212803 75 289 4.0 10.0 0.00 0.00 0.00 24 1005.5
20260504212403 76 251 5.0 10.0 0.00 0.00 0.00 21 1005.5
20260504212203 77 320 1.0 10.0 0.00 0.00 0.00 23 1005.5
20260504212003 76 254 1.0 5.0 0.00 0.00 0.00 25 1005.5
20260504211803 75 204 1.0 9.0 0.00 0.00 0.00 24 1005.5
20260504211603 75 286 2.0 9.0 0.00 0.00 0.00 23 1005.5
20260504211402 74 313 3.0 9.0 0.00 0.00 0.00 23 1005.6
20260504211203 75 295 4.0 9.0 0.00 0.00 0.00 22 1005.6
20260504211003 75 302 4.0 9.0 0.00 0.00 0.00 24 1005.5
20260504210803 75 337 5.0 9.0 0.00 0.00 0.00 24 1005.6
20260504210403 75 285 4.0 9.0 0.00 0.00 0.00 24 1005.6
20260504210203 75 280 3.0 9.0 0.00 0.00 0.00 24 1005.6
20260504210004 75 263 5.0 9.0 0.00 0.00 0.00 24 1005.6
20260504205801 75 286 3.0 9.0 0.00 0.00 0.00 24 1005.6
20260504205401 75 300 4.0 9.0 0.00 0.00 0.00 25 1005.7
20260504205201 75 9 3.0 10.0 0.00 0.00 0.00 24 1005.7
20260504205003 75 346 2.0 10.0 0.00 0.00 0.00 24 1005.8
20260504204802 75 302 3.0 10.0 0.00 0.00 0.00 24 1005.8
20260504204602 75 327 4.0 10.0 0.00 0.00 0.00 23 1005.8
20260504204402 76 285 5.0 10.0 0.00 0.00 0.00 24 1005.8
20260504204203 76 326 4.0 8.0 0.00 0.00 0.00 25 1005.8
20260504203803 76 292 3.0 7.0 0.00 0.00 0.00 23 1005.9
20260504203602 76 322 3.0 5.0 0.00 0.00 0.00 24 1005.9
20260504203402 75 285 2.0 8.0 0.00 0.00 0.00 25 1006.0
20260504203202 75 281 3.0 8.0 0.00 0.00 0.00 24 1005.9
20260504203001 76 15 2.0 10.0 0.00 0.00 0.00 23 1005.9
20260504202801 76 252 2.0 10.0 0.00 0.00 0.00 25 1006.0
20260504202401 76 328 4.0 10.0 0.00 0.00 0.00 25 1006.0
20260504202202 76 286 4.0 13.0 0.00 0.00 0.00 27 1006.1
20260504202001 76 206 4.0 13.0 0.00 0.00 0.00 24 1006.0
20260504201801 75 220 4.0 13.0 0.00 0.00 0.00 25 1006.0
20260504201601 75 317 5.0 13.0 0.00 0.00 0.00 24 1006.0
20260504201401 75 288 5.0 13.0 0.00 0.00 0.00 25 1006.0
20260504201201 75 250 5.0 12.0 0.00 0.00 0.00 27 1005.9
20260504201002 75 328 5.0 12.0 0.00 0.00 0.00 26 1006.0
20260504200802 75 313 5.0 10.0 0.00 0.00 0.00 26 1006.0
20260504200602 75 329 4.0 10.0 0.00 0.00 0.00 26 1006.0
20260504200401 75 300 5.0 10.0 0.00 0.00 0.00 26 1006.1
20260504200202 75 292 4.0 10.0 0.00 0.00 0.00 27 1006.2
20260504200003 75 312 4.0 10.0 0.00 0.00 0.00 26 1006.1
20260504195801 76 285 4.0 10.0 0.00 0.00 0.00 26 1006.1
20260504195601 76 296 4.0 10.0 0.00 0.00 0.00 26 1006.1
20260504195401 76 250 3.0 10.0 0.00 0.00 0.00 27 1006.2
20260504195202 76 244 3.0 10.0 0.00 0.00 0.00 27 1006.2
20260504195002 75 311 3.0 7.0 0.00 0.00 0.00 26 1006.2
20260504194801 75 219 3.0 7.0 0.00 0.00 0.00 26 1006.2
20260504194602 75 230 2.0 8.0 0.00 0.00 0.00 26 1006.3
20260504194202 76 261 2.0 8.0 0.00 0.00 0.00 27 1006.3
20260504194002 75 266 3.0 8.0 0.00 0.00 0.00 26 1006.4
20260504193601 75 294 1.0 7.0 0.00 0.00 0.00 29 1006.4
20260504193402 74 252 3.0 7.0 0.00 0.00 0.00 27 1006.4
20260504193201 74 138 3.0 6.0 0.00 0.00 0.00 28 1006.5
20260504192802 74 90 3.0 7.0 0.00 0.00 0.00 26 1006.5
20260504192603 74 40 2.0 6.0 0.00 0.00 0.00 26 1006.6
20260504192401 74 298 3.0 7.0 0.00 0.00 0.00 27 1006.7
20260504191801 74 348 3.0 9.0 0.00 0.00 0.00 27 1006.7
20260504191401 74 311 3.0 9.0 0.00 0.00 0.00 27 1006.7
20260504191202 73 304 4.0 9.0 0.00 0.00 0.00 27 1006.8
20260504191003 74 317 4.0 9.0 0.00 0.00 0.00 27 1006.7
20260504190801 74 307 3.0 8.0 0.00 0.00 0.00 26 1006.7
20260504190601 74 317 3.0 8.0 0.00 0.00 0.00 26 1006.8
20260504190202 74 279 4.0 8.0 0.00 0.00 0.00 27 1006.8
20260504190005 74 252 5.0 8.0 0.00 0.00 0.00 26 1006.8
20260504185801 75 268 3.0 8.0 0.00 0.00 0.00 25 1006.8
20260504185602 75 286 3.0 8.0 0.00 0.00 0.00 27 1006.8
20260504185402 75 205 1.0 6.0 0.00 0.00 0.00 28 1006.9
20260504185201 73 300 2.0 7.0 0.00 0.00 0.00 30 1006.8
20260504185002 73 306 2.0 7.0 0.00 0.00 0.00 26 1006.9
20260504184802 74 291 4.0 7.0 0.00 0.00 0.00 26 1006.9
20260504184601 75 254 2.0 7.0 0.00 0.00 0.00 27 1006.8
20260504184401 75 223 4.0 7.0 0.00 0.00 0.00 27 1006.9
20260504184202 74 217 3.0 7.0 0.00 0.00 0.00 27 1006.9
20260504183802 73 85 2.0 10.0 0.00 0.00 0.00 29 1006.9
20260504183602 73 146 2.0 10.0 0.00 0.00 0.00 27 1006.9
20260504183401 73 168 3.0 10.0 0.00 0.00 0.00 28 1007.0
20260504183201 74 194 5.0 10.0 0.00 0.00 0.00 28 1007.1
20260504183001 75 194 3.0 7.0 0.00 0.00 0.00 27 1007.2
20260504182802 75 121 2.0 5.0 0.00 0.00 0.00 29 1007.2
20260504182602 75 173 1.0 5.0 0.00 0.00 0.00 28 1007.2
20260504182401 74 267 1.0 5.0 0.00 0.00 0.00 28 1007.2
20260504182202 74 278 2.0 5.0 0.00 0.00 0.00 28 1007.2
20260504182001 74 169 1.0 6.0 0.00 0.00 0.00 29 1007.3
20260504181801 73 221 1.0 6.0 0.00 0.00 0.00 27 1007.3
20260504181601 73 299 1.0 6.0 0.00 0.00 0.00 28 1007.3
20260504181401 72 333 1.0 6.0 0.00 0.00 0.00 28 1007.4
20260504181002 72 343 2.0 5.0 0.00 0.00 0.00 29 1007.4
20260504180801 72 331 2.0 6.0 0.00 0.00 0.00 28 1007.5
20260504180601 72 51 1.0 7.0 0.00 0.00 0.00 28 1007.5
20260504180201 72 192 3.0 7.0 0.00 0.00 0.00 28 1007.6
20260504180004 73 180 3.0 7.0 0.00 0.00 0.00 28 1007.6
20260504175802 73 215 5.0 9.0 0.00 0.00 0.00 28 1007.6
20260504175403 72 239 2.0 9.0 0.00 0.00 0.00 28 1007.6
20260504175202 72 187 2.0 9.0 0.00 0.00 0.00 28 1007.7
20260504175001 73 192 5.0 9.0 0.00 0.00 0.00 29 1007.8
20260504174802 72 169 1.0 5.0 0.00 0.00 0.00 28 1007.8
20260504174602 73 168 1.0 5.0 0.00 0.00 0.00 27 1007.7
20260504174401 73 169 2.0 6.0 0.00 0.00 0.00 29 1007.7
20260504174201 73 206 1.0 5.0 0.00 0.00 0.00 28 1007.7
20260504174001 73 206 2.0 5.0 0.00 0.00 0.00 28 1007.8
20260504173802 74 196 3.0 5.0 0.00 0.00 0.00 28 1007.8
20260504173601 74 181 1.0 4.0 0.00 0.00 0.00 34 1007.8
20260504173401 73 101 1.0 4.0 0.00 0.00 0.00 31 1007.8
20260504172801 72 202 1.0 6.0 0.00 0.00 0.00 30 1007.9
20260504172601 72 211 1.0 6.0 0.00 0.00 0.00 30 1007.8
20260504172401 72 209 2.0 6.0 0.00 0.00 0.00 29 1007.9
20260504172202 72 165 1.0 5.0 0.00 0.00 0.00 29 1007.9
20260504172002 73 164 2.0 5.0 0.00 0.00 0.00 28 1007.9
20260504171601 73 168 2.0 5.0 0.00 0.00 0.00 29 1007.9
20260504171402 72 211 2.0 7.0 0.00 0.00 0.00 33 1007.9
20260504171202 72 202 2.0 7.0 0.00 0.00 0.00 32 1007.9
20260504170802 71 205 3.0 7.0 0.00 0.00 0.00 32 1007.9
20260504170601 71 173 4.0 7.0 0.00 0.00 0.00 31 1007.9
20260504170401 72 202 3.0 7.0 0.00 0.00 0.00 31 1007.9
20260504170201 72 215 2.0 7.0 0.00 0.00 0.00 30 1007.9
20260504151001 67 183 1.0 6.0 0.00 0.00 0.00 41 1008.4
20260504150602 67 199 3.0 6.0 0.00 0.00 0.00 40 1008.4
20260504150401 67 188 3.0 5.0 0.00 0.00 0.00 40 1008.4
20260504150201 67 198 1.0 4.0 0.00 0.00 0.00 41 1008.4
20260504141001 65 109 0.0 2.0 0.00 0.00 0.00 36 1008.5
20260504140801 65 108 0.0 1.0 0.00 0.00 0.00 37 1008.5
20260504140601 65 108 0.0 0.0 0.00 0.00 0.00 37 1008.5
20260504140401 65 108 0.0 0.0 0.00 0.00 0.00 38 1008.4
20260504130800 54 96 1.0 3.0 0.00 0.00 0.00 48 1008.4
20260504130600 54 68 0.0 0.0 0.00 0.00 0.00 48 1008.4
20260504130400 54 68 0.0 1.0 0.00 0.00 0.00 47 1008.4
20260504130200 54 68 0.0 2.0 0.00 0.00 0.00 47 1008.4
20260504120201 53 68 0.0 0.0 0.00 0.00 0.00 46 1008.4
20260504110359 55 68 1.0 3.0 0.00 0.00 0.00 43 1008.5
20260504110200 55 68 1.0 3.0 0.00 0.00 0.00 43 1008.5
20260504100600 55 28 0.0 0.0 0.00 0.00 0.00 46 1008.2
20260504100400 55 28 0.0 0.0 0.00 0.00 0.00 46 1008.2
20260504100200 55 28 0.0 0.0 0.00 0.00 0.00 46 1008.2
20260504081801 55 24 0.0 0.0 0.00 0.00 0.00 40 1007.3
20260504081601 55 24 0.0 0.0 0.00 0.00 0.00 39 1007.4
20260504081401 55 24 0.0 0.0 0.00 0.00 0.00 39 1007.3
20260504081000 56 24 0.0 0.0 0.00 0.00 0.00 38 1007.3
20260504080800 56 24 0.0 0.0 0.00 0.00 0.00 38 1007.3
20260504080601 56 24 0.0 0.0 0.00 0.00 0.00 38 1007.3
20260504080400 56 24 0.0 0.0 0.00 0.00 0.00 38 1007.3
20260504080200 56 24 0.0 0.0 0.00 0.00 0.00 37 1007.4
20260504070400 57 24 0.0 0.0 0.00 0.00 0.00 35 1007.6
20260504070200 57 24 0.0 0.0 0.00 0.00 0.00 35 1007.6
20260504060203 60 24 0.0 0.0 0.00 0.00 0.00 32 1007.5
20260504050602 62 24 0.0 0.0 0.00 0.00 0.00 27 1007.8
20260504050002 62 24 0.0 0.0 0.00 0.00 0.00 27 1007.8
20260504045804 62 25 0.0 0.0 0.00 0.00 0.00 27 1007.8
20260504045602 63 25 0.0 0.0 0.00 0.00 0.00 27 1007.8
20260504045402 63 26 0.0 0.0 0.00 0.00 0.00 27 1007.8
20260504045202 63 26 0.0 0.0 0.00 0.00 0.00 27 1007.8
20260504045003 63 26 0.0 0.0 0.00 0.00 0.00 27 1007.8
20260504044803 63 26 0.0 0.0 0.00 0.00 0.00 27 1007.8
20260504044604 63 26 0.0 0.0 0.00 0.00 0.00 27 1007.8
20260504044202 63 26 0.0 0.0 0.00 0.00 0.00 27 1007.9
20260504044002 63 26 0.0 0.0 0.00 0.00 0.00 27 1007.9
20260504043402 64 26 0.0 0.0 0.00 0.00 0.00 27 1007.9
20260504043204 64 26 0.0 0.0 0.00 0.00 0.00 27 1007.9
20260504042803 64 26 0.0 0.0 0.00 0.00 0.00 27 1007.9
20260504042602 64 26 0.0 0.0 0.00 0.00 0.00 27 1007.8
20260504042403 64 26 0.0 0.0 0.00 0.00 0.00 27 1007.9
20260504042202 64 26 0.0 1.0 0.00 0.00 0.00 27 1007.9
20260504041803 64 26 0.0 1.0 0.00 0.00 0.00 26 1007.9
20260504041603 64 26 0.0 2.0 0.00 0.00 0.00 26 1007.9
20260504041401 64 26 0.0 2.0 0.00 0.00 0.00 26 1007.9
20260504041203 64 26 0.0 2.0 0.00 0.00 0.00 26 1007.9
20260504041002 64 26 0.0 2.0 0.00 0.00 0.00 26 1007.9
20260504040802 65 26 0.0 2.0 0.00 0.00 0.00 26 1007.9
20260504040602 65 26 0.0 2.0 0.00 0.00 0.00 26 1007.9
20260504040202 65 26 1.0 2.0 0.00 0.00 0.00 26 1007.9
20260504040005 65 26 1.0 2.0 0.00 0.00 0.00 26 1007.9
20260504035804 65 26 1.0 2.0 0.00 0.00 0.00 26 1007.9
20260504035603 65 26 1.0 2.0 0.00 0.00 0.00 25 1007.9
20260504035404 65 26 1.0 2.0 0.00 0.00 0.00 25 1007.9
20260504035004 66 26 0.0 0.0 0.00 0.00 0.00 25 1007.9
20260504034803 66 26 0.0 1.0 0.00 0.00 0.00 25 1007.9
20260504034405 66 26 0.0 3.0 0.00 0.00 0.00 25 1007.9
20260504034204 66 26 0.0 3.0 0.00 0.00 0.00 25 1007.9
20260504034003 66 26 1.0 3.0 0.00 0.00 0.00 25 1007.9
20260504033804 66 26 1.0 3.0 0.00 0.00 0.00 25 1008.0
20260504033604 66 26 2.0 3.0 0.00 0.00 0.00 25 1007.9
20260504033403 66 26 1.0 3.0 0.00 0.00 0.00 24 1007.9
20260504033203 66 13 0.0 2.0 0.00 0.00 0.00 24 1008.0
20260504032604 66 13 0.0 2.0 0.00 0.00 0.00 24 1007.9
20260504032404 67 13 1.0 2.0 0.00 0.00 0.00 24 1008.0
20260504032204 67 13 1.0 2.0 0.00 0.00 0.00 24 1008.0
20260504032005 67 15 0.0 2.0 0.00 0.00 0.00 24 1008.0
20260504031805 67 15 1.0 2.0 0.00 0.00 0.00 24 1008.0
20260504031605 67 15 0.0 0.0 0.00 0.00 0.00 24 1007.9
20260504031204 68 15 0.0 0.0 0.00 0.00 0.00 23 1007.9
20260504031005 68 15 0.0 0.0 0.00 0.00 0.00 23 1007.9
20260504030805 68 15 0.0 0.0 0.00 0.00 0.00 22 1008.0
20260504030404 68 15 0.0 0.0 0.00 0.00 0.00 21 1007.9
20260504030203 68 14 0.0 0.0 0.00 0.00 0.00 21 1008.0
20260504025803 68 14 0.0 0.0 0.00 0.00 0.00 21 1007.9
20260504025402 69 15 0.0 0.0 0.00 0.00 0.00 22 1007.9
20260504025202 69 16 0.0 0.0 0.00 0.00 0.00 21 1007.9
20260504025004 69 17 0.0 0.0 0.00 0.00 0.00 22 1007.9
20260504024803 69 17 0.0 0.0 0.00 0.00 0.00 21 1007.9
20260504024404 69 17 0.0 0.0 0.00 0.00 0.00 20 1007.9
20260504024003 69 17 0.0 2.0 0.00 0.00 0.00 20 1007.9
20260504023803 70 17 0.0 2.0 0.00 0.00 0.00 20 1007.9
20260504023603 70 17 0.0 3.0 0.00 0.00 0.00 20 1007.9
20260504023404 70 17 1.0 3.0 0.00 0.00 0.00 20 1007.9
20260504023202 70 17 1.0 3.0 0.00 0.00 0.00 20 1007.9
20260504023007 70 17 1.0 3.0 0.00 0.00 0.00 20 1007.9
20260504022804 70 360 1.0 3.0 0.00 0.00 0.00 21 1007.9